"2016-05-11 00:00:00",1622811,13.3,158.8,7.382,1.349,15.76,104.0096,9.54,10.82,59.51,0,110.4,13.08,10.32,120.8
"2016-05-11 00:00:30",1622812,12.83,154.9,7.585,1.485,15.58,104.0045,9.53,10.75,58.99,0,110.4,13.08,10.31,116.9
"2016-05-11 00:01:00",1622813,12.22,154.9,6.82,1.532,15.59,104.0011,9.52,10.69,57.78,0,110.4,13.08,10.30,116.9
"2016-05-11 00:01:30",1622814,12.06,152.3,6.034,1.438,13.72,103.9969,9.51,10.64,58.37,0,110.4,13.08,10.29,114.3
"2016-05-11 00:02:00",1622815,11.43,149.8,0.712,0.436,12.08,104.0017,9.52,10.52,58.73,0,110.4,13.12,10.30,111.8
"2016-05-11 00:02:30",1622816,12.41,154.7,7.14,1.407,14.42,104.0051,9.53,10.73,60.21,0,110.4,13.08,10.31,116.7
"2016-05-11 00:03:00",1622817,13.41,156.9,7.485,1.419,15.63,104.0039,9.52,10.76,59.53,0,110.4,13.08,10.31,118.9
"2016-05-11 00:03:30",1622818,13.03,158.3,7.199,1.448,16.24,104.0045,9.53,10.77,59.4,0,110.4,13.08,10.31,120.3
"2016-05-11 00:04:00",1622819,13.57,160.3,7.564,1.398,15.53,104.0062,9.53,10.76,59.93,0,110.4,13.08,10.32,122.3
"2016-05-11 00:04:30",1622820,12.81,159,6.999,1.418,14.49,104.0042,9.52,10.7,60.89,0,110.4,13.08,10.31,121.0
"2016-05-11 00:05:00",1622821,11.52,154.3,3.525,0.586,12.59,103.9975,9.51,10.55,61.17,0,110.3,13.08,10.29,116.3
"2016-05-11 00:05:30",1622822,11.52,155.1,4.818,1.035,12.95,103.9941,9.5,10.52,61.28,0,110.4,13.09,10.28,117.1
"2016-05-11 00:06:00",1622823,12.36,159.9,7.398,1.48,14.87,103.9938,9.5,10.69,60.73,0,110.4,13.08,10.28,121.9
"2016-05-11 00:06:30",1622824,12.92,162,7.539,1.398,16.67,103.9932,9.5,10.75,59.26,0,110.4,13.09,10.28,124.0
"2016-05-11 00:07:00",1622825,12.18,162,7.5,1.4,16.11,103.9994,9.51,10.71,58.05,0,110.4,13.09,10.30,124.0
"2016-05-11 00:07:30",1622826,12.17,160.5,7.536,1.448,15.41,104.0085,9.54,10.67,57.76,0,110.4,13.08,10.32,122.5
"2016-05-11 00:08:00",1622827,11.39,160.9,7.265,1.145,14.6,104.0223,9.57,10.59,57.87,0,110.4,13.09,10.36,122.9
"2016-05-11 00:08:30",1622828,10.43,158.4,1.894,0.228,13.12,104.0406,9.62,10.51,57.75,0,110.4,13.13,10.40,120.4
"2016-05-11 00:09:00",1622829,11.31,165.2,6.66,1.204,14.86,104.0699,9.69,10.67,57.92,0,110.4,13.08,10.48,127.2
"2016-05-11 00:09:30",1622830,12.23,173.3,7.23,1.384,17.65,104.1012,9.77,10.81,57.79,0,110.4,13.09,10.56,135.3
"2016-05-11 00:10:00",1622831,10.39,170.5,7.808,1.467,16.05,104.1362,9.86,10.81,57.58,0,110.4,13.09,10.65,132.5
"2016-05-11 00:10:30",1622832,9.95,165.1,7.615,1.406,15.12,104.1774,9.97,10.83,57.17,0,110.4,13.08,10.75,127.1
"2016-05-11 00:11:00",1622833,10.32,169.3,8.35,1.357,15.96,104.2146,10.06,10.89,56.81,0,110.4,13.09,10.85,131.3
"2016-05-11 00:11:30",1622834,8.78,159.1,2.096,0.264,13.04,104.2496,10.15,10.86,56.36,0,110.4,13.13,10.94,121.1
"2016-05-11 00:12:00",1622835,8.96,158.1,2.408,0.35,12.76,104.2775,10.22,10.88,55.99,0,110.4,13.13,11.01,120.1
"2016-05-11 00:12:30",1622836,8.95,160.8,1.17,0.229,13.21,104.2992,10.28,10.98,55.68,0,110.4,13.13,11.07,122.8
"2016-05-11 00:13:00",1622837,10.8,169.3,7.154,1.378,17.03,104.3271,10.35,11.25,55.58,0,110.4,13.09,11.14,131.3
"2016-05-11 00:13:30",1622838,10.51,169.1,7.643,1.438,17.24,104.3415,10.39,11.33,55.35,0,110.4,13.09,11.18,131.1
"2016-05-11 00:14:00",1622839,10.4,165.6,7.454,1.429,16.6,104.3624,10.44,11.24,55.03,0,110.4,13.09,11.23,127.6
"2016-05-11 00:14:30",1622840,9.79,162.1,7.267,1.401,15.64,104.3663,10.45,11.38,54.86,0,110.3,13.09,11.24,124.1
"2016-05-11 00:15:00",1622841,8.98,157.8,5.342,1.151,13.93,104.3745,10.47,11.2,54.42,0,110.4,13.08,11.26,119.8
"2016-05-11 00:15:30",1622842,8.67,151.9,2.479,0.301,12.9,104.3928,10.52,11.25,54.72,0,110.4,13.13,11.31,113.9
"2016-05-11 00:16:00",1622843,9.92,160.3,7.729,1.353,15.57,104.3982,10.53,11.41,56.1,0,110.4,13.08,11.32,122.3
"2016-05-11 00:16:30",1622844,10.4,160.7,7.928,1.4,16.45,104.3945,10.52,11.58,56.88,0,110.4,13.08,11.31,122.7
"2016-05-11 00:17:00",1622845,10.27,161.4,6.948,1.372,16.62,104.3784,10.48,11.63,58.81,0,110.4,13.08,11.27,123.4
"2016-05-11 00:17:30",1622846,9.07,156.5,7.804,1.459,14.92,104.3655,10.45,11.54,60.06,0,110.4,13.07,11.24,118.5
"2016-05-11 00:18:00",1622847,8.76,154.1,6.695,1.198,13.79,104.3573,10.43,11.47,59.73,0,110.4,13.07,11.22,116.1
"2016-05-11 00:18:30",1622848,8.31,148.3,2.15,0.192,12.29,104.3316,10.36,11.34,60.04,0,110.4,13.12,11.15,110.3
"2016-05-11 00:19:00",1622849,8.79,149.9,5.436,0.972,13.22,104.3029,10.29,11.42,59.73,0,110.4,13.08,11.08,111.9
"2016-05-11 00:19:30",1622850,9.97,159.1,7.264,1.402,15.78,104.2772,10.22,11.54,61,0,110.4,13.08,11.01,121.1
"2016-05-11 00:20:00",1622851,10.03,159.1,6.808,1.436,15.63,104.2479,10.15,11.49,60.66,0,110.4,13.08,10.94,121.1
"2016-05-11 00:20:30",1622852,9.4,157.2,6.861,1.365,14.58,104.2234,10.09,11.43,61.6,0,110.4,13.08,10.87,119.2
"2016-05-11 00:21:00",1622853,9.54,158.4,7.903,1.248,14.54,104.192,10.01,11.4,62.3,0,110.4,13.08,10.79,120.4
"2016-05-11 00:21:30",1622854,7.924,155,1.992,0.231,11.81,104.1574,9.92,11.12,62.28,0,110.4,13.13,10.70,117.0
"2016-05-11 00:22:00",1622855,7.981,154.8,3.921,0.593,12.1,104.1249,9.83,11.13,62.86,0,110.4,13.09,10.62,116.8
"2016-05-11 00:22:30",1622856,9.97,160,7.365,1.412,15.67,104.0936,9.75,11.26,63.38,0,110.4,13.09,10.54,122.0
"2016-05-11 00:23:00",1622857,9.52,160.8,7.351,1.435,15.58,104.0668,9.68,11.19,63.26,0,110.4,13.09,10.47,122.8
"2016-05-11 00:23:30",1622858,8.58,167.6,8.28,1.519,15.76,104.0352,9.6,11.12,63.87,0,110.4,13.09,10.39,129.6
"2016-05-11 00:24:00",1622859,7.748,170.3,6.746,1.492,14.59,104.0065,9.53,11.07,65.85,0,110.4,13.09,10.32,132.3
"2016-05-11 00:24:30",1622860,6.631,160.1,6.782,0.832,12.34,103.9709,9.44,10.76,66.23,0,110.4,13.09,10.22,122.1
"2016-05-11 00:25:00",1622861,6.222,157.9,5.194,0.48,11.73,103.945,9.37,10.75,66.5,0,110.4,13.14,10.16,119.9
"2016-05-11 00:25:30",1622862,7.292,168.6,6.798,1.588,14.94,103.9171,9.3,10.82,67.65,0,110.4,13.09,10.09,130.6
"2016-05-11 00:26:00",1622863,7.236,162.5,7.101,1.569,14.48,103.8909,9.23,10.81,67.88,0,110.4,13.09,10.02,124.5
"2016-05-11 00:26:30",1622864,7.598,161.3,8.04,1.421,14.19,103.866,9.17,10.72,67.78,0,110.4,13.09,9.96,123.3
"2016-05-11 00:27:00",1622865,7.266,155.4,8.14,1.569,14.41,103.8511,9.13,10.63,68.1,0,110.4,13.09,9.92,117.4
"2016-05-11 00:27:30",1622866,6.921,148.3,6.604,1.275,13.01,103.8254,9.07,10.52,68.17,0,110.4,13.09,9.85,110.3
"2016-05-11 00:28:00",1622867,6.641,149.6,4.637,1.108,12.24,103.8161,9.04,10.37,68.03,0,110.4,13.09,9.83,111.6
"2016-05-11 00:28:30",1622868,7.12,158.2,7.675,1.438,14.58,103.7955,8.99,10.5,68.24,0,110.3,13.09,9.77,120.2
"2016-05-11 00:29:00",1622869,6.926,148.5,7.708,1.474,13.62,103.7862,8.97,10.42,68.17,0,110.4,13.09,9.75,110.5
"2016-05-11 00:29:30",1622870,8.26,150.6,8.05,1.522,14.38,103.7654,8.91,10.35,67.95,0,110.4,13.09,9.70,112.6
"2016-05-11 00:30:00",1622871,8.33,154.2,7.626,1.574,15.23,103.7584,8.9,10.39,67.81,0,110.3,13.09,9.68,116.2
"2016-05-11 00:30:30",1622872,7.328,159.4,6.705,1.585,14.51,103.7458,8.86,10.29,68.55,0,110.3,13.09,9.65,121.4
"2016-05-11 00:31:00",1622873,7.45,150.8,6.056,1.538,13.42,103.7363,8.84,10.15,68.76,0,110.3,13.09,9.62,112.8
"2016-05-11 00:31:30",1622874,7.456,152.8,7.801,1.227,13.83,103.7319,8.83,10.24,68.08,0,110.3,13.09,9.61,114.8
"2016-05-11 00:32:00",1622875,6.774,149.1,7.31,1.19,12.84,103.7245,8.81,10.11,67.85,0,110.3,13.09,9.59,111.1
"2016-05-11 00:32:30",1622876,7.239,149.4,7.742,1.274,13.19,103.7102,8.77,10.1,67.95,0,110.3,13.09,9.56,111.4
"2016-05-11 00:33:00",1622877,6.871,149.6,8.79,1.296,14.2,103.703,8.75,10.22,68.58,0,110.3,13.09,9.54,111.6
"2016-05-11 00:33:30",1622878,6.609,148.3,7.025,1.503,14.45,103.7047,8.76,10.15,69.16,0,110.3,13.09,9.54,110.3
"2016-05-11 00:34:00",1622879,6.958,148.2,6.817,1.375,13.11,103.7011,8.75,9.93,69.44,0,110.3,13.09,9.53,110.2
"2016-05-11 00:34:30",1622880,6.197,150.4,8.1,1.466,13.63,103.691,8.72,10.09,69.77,0,110.3,13.09,9.51,112.4
"2016-05-11 00:35:00",1622881,6.242,150.2,7.031,1.407,13.27,103.6807,8.7,9.98,69.94,0,110.3,13.09,9.48,112.2
"2016-05-11 00:35:30",1622882,5.585,147,6.599,1.08,12.37,103.6773,8.69,9.94,70.15,0,110.3,13.09,9.47,109.0
"2016-05-11 00:36:00",1622883,6.601,150.8,7.536,1.437,14.28,103.6791,8.69,9.96,70.57,0,110.3,13.09,9.48,112.8
"2016-05-11 00:36:30",1622884,6.395,152.6,7.3,1.419,15.05,103.6777,8.69,10.06,70.93,0,110.3,13.09,9.47,114.6
"2016-05-11 00:37:00",1622885,6.149,147.4,8.16,1.422,13.67,103.6682,8.67,9.88,70.75,0,110.3,13.09,9.45,109.4
"2016-05-11 00:37:30",1622886,5.721,145.5,7.553,1.421,13.58,103.6561,8.63,9.95,70.64,0,110.3,13.09,9.42,107.5
"2016-05-11 00:38:00",1622887,5.758,147.1,7.674,1.446,13.88,103.6514,8.62,9.87,70.62,0,110.3,13.09,9.40,109.1
"2016-05-11 00:38:30",1622888,4.321,136.5,2.522,0.122,11.48,103.6537,8.63,9.73,70.64,0,110.3,13.14,9.41,98.5
"2016-05-11 00:39:00",1622889,5.128,141.1,5.744,1.137,12.84,103.6534,8.63,9.82,70.51,0,110.3,13.1,9.41,103.1
"2016-05-11 00:39:30",1622890,5.419,136.4,7.568,1.391,14.33,103.6546,8.63,9.9,70.44,0,110.3,13.1,9.41,98.4
"2016-05-11 00:40:00",1622891,4.303,123.1,6.939,1.361,13.79,103.6558,8.63,9.82,70.79,0,110.3,13.1,9.42,85.1
"2016-05-11 00:40:30",1622892,3.766,118.8,5.321,1.277,12.67,103.6529,8.63,9.77,71.07,0,110.3,13.1,9.41,80.8
"2016-05-11 00:41:00",1622893,3.513,117.7,6.26,1.321,12.72,103.6504,8.62,9.77,71.32,0,110.3,13.1,9.40,79.7
"2016-05-11 00:41:30",1622894,3.81,102.5,10.7,1.399,13.39,103.645,8.61,9.87,71.59,0,110.3,13.1,9.39,64.5
"2016-05-11 00:42:00",1622895,2.73,89.3,3.12,0.185,11.46,103.6417,8.6,9.65,71.57,0,110.3,13.15,9.38,51.3
"2016-05-11 00:42:30",1622896,3.909,90.9,3.514,1.321,12.29,103.6326,8.57,9.68,71.79,0,110.3,13.1,9.36,52.9
"2016-05-11 00:43:00",1622897,4.96,85.6,8.67,1.374,13.5,103.629,8.57,9.73,71.87,0,110.4,13.1,9.35,47.6
"2016-05-11 00:43:30",1622898,5.541,69.84,7.551,1.396,14.16,103.6242,8.55,9.82,72.13,0,110.3,13.1,9.34,31.8
"2016-05-11 00:44:00",1622899,5.579,62.69,9.38,1.406,13.77,103.625,8.56,9.81,72.5,0,110.3,13.1,9.34,24.7
"2016-05-11 00:44:30",1622900,5.015,70.76,7.138,1.332,12.95,103.6222,8.55,9.72,72.34,0,110.3,13.1,9.33,32.8
"2016-05-11 00:45:00",1622901,5.905,68.1,7.229,1.481,13.93,103.6225,8.55,9.73,72.05,0,110.3,13.1,9.33,30.1
"2016-05-11 00:45:30",1622902,4.401,53.38,6.862,0.182,11.68,103.6225,8.55,9.7,72.46,0,110.3,13.15,9.33,15.4
"2016-05-11 00:46:00",1622903,4.132,48.31,4.487,0.845,11.9,103.6222,8.55,9.72,73.26,0,110.3,13.1,9.33,10.3
"2016-05-11 00:46:30",1622904,4.905,47.09,7.598,1.39,13.39,103.6222,8.55,9.71,73.85,0,110.3,13.1,9.33,9.1
"2016-05-11 00:47:00",1622905,4.815,58.97,9.25,1.379,14.23,103.6222,8.55,9.79,74.21,0,110.3,13.1,9.33,21.0
"2016-05-11 00:47:30",1622906,4.481,68.37,9.21,1.309,12.84,103.6222,8.55,9.73,74.23,0,110.3,13.1,9.33,30.4
"2016-05-11 00:48:00",1622907,5.082,66.87,7.693,1.468,13.58,103.6222,8.55,9.66,74.2,0,110.3,13.1,9.33,28.9
"2016-05-11 00:48:30",1622908,5.091,65.57,6.722,1.258,13.02,103.6222,8.55,9.71,74.21,0,110.3,13.1,9.33,27.6
"2016-05-11 00:49:00",1622909,5.135,68.49,4.726,1.223,12.35,103.616,8.53,9.67,73.95,0,110.3,13.1,9.31,30.5
"2016-05-11 00:49:30",1622910,5.382,69.5,7.726,1.232,13.01,103.6044,8.5,9.67,73.89,0,110.3,13.1,9.28,31.5
"2016-05-11 00:50:00",1622911,5.741,65.18,8.76,1.236,13.42,103.59,8.47,9.78,74.02,0,110.3,13.1,9.25,27.2
"2016-05-11 00:50:30",1622912,5.917,82.1,8.38,1.523,14.35,103.5884,8.46,9.72,74.04,0,110.3,13.1,9.24,44.1
"2016-05-11 00:51:00",1622913,4.224,78.23,6.203,1.428,13.28,103.5884,8.46,9.63,74,0,110.3,13.1,9.24,40.2
"2016-05-11 00:51:30",1622914,4.003,81.2,8.7,1.291,13.23,103.5884,8.46,9.69,74.15,0,110.3,13.1,9.24,43.2
"2016-05-11 00:52:00",1622915,5.174,88.1,10.27,1.318,14.32,103.5884,8.46,9.67,74.05,0,110.3,13.09,9.24,50.1
"2016-05-11 00:52:30",1622916,4.287,76.04,3.491,0.117,11.49,103.5878,8.46,9.51,73.73,0,110.3,13.14,9.24,38.0
"2016-05-11 00:53:00",1622917,4.869,74.32,6.493,1.234,12.77,103.5816,8.44,9.62,73.8,0,110.3,13.1,9.23,36.3
"2016-05-11 00:53:30",1622918,4.726,86.2,6.408,1.262,12.92,103.5762,8.43,9.63,73.82,0,110.3,13.1,9.21,48.2
"2016-05-11 00:54:00",1622919,5.963,90.8,7.412,1.542,13.35,103.5695,8.41,9.55,73.84,0,110.3,13.1,9.19,52.8
"2016-05-11 00:54:30",1622920,6.303,77.92,6.527,1.295,13.31,103.5683,8.41,9.67,74.16,0,110.3,13.1,9.19,39.9
"2016-05-11 00:55:00",1622921,6.372,80.1,7.473,1.456,13.97,103.5703,8.42,9.7,74.36,0,110.3,13.1,9.20,42.1
"2016-05-11 00:55:30",1622922,6.668,79.69,9.23,1.334,13.94,103.5638,8.4,9.62,74.52,0,110.3,13.1,9.18,41.7
"2016-05-11 00:56:00",1622923,4.992,70.32,2.711,0.449,11.17,103.5565,8.38,9.48,74.63,0,110.3,13.15,9.16,32.3
"2016-05-11 00:56:30",1622924,6.221,80.4,7.288,1.363,13.95,103.5559,8.38,9.65,74.88,0,110.3,13.1,9.16,42.4
"2016-05-11 00:57:00",1622925,5.407,67.67,7.911,1.267,12.71,103.5548,8.38,9.54,74.7,0,110.3,13.11,9.16,29.7
"2016-05-11 00:57:30",1622926,4.872,74.37,6.962,1.313,13.25,103.5548,8.38,9.59,74.6,0,110.3,13.11,9.16,36.4
"2016-05-11 00:58:00",1622927,5.507,77.29,7.499,1.406,14.06,103.5545,8.37,9.57,74.4,0,110.3,13.11,9.16,39.3
"2016-05-11 00:58:30",1622928,4.788,75.04,7.184,1.274,13.14,103.5548,8.38,9.62,74.43,0,110.3,13.11,9.16,37.0
"2016-05-11 00:59:00",1622929,5.471,77.27,9.09,1.474,13.63,103.5551,8.38,9.57,74.33,0,110.3,13.1,9.16,39.3
"2016-05-11 00:59:30",1622930,3.971,72.45,6.266,0.374,11.44,103.5548,8.38,9.42,73.93,0,110.3,13.15,9.16,34.4
"2016-05-11 01:00:00",1622931,4.853,88.7,8.92,1.444,14,103.5557,8.38,9.59,73.9,0,110.3,13.1,9.16,50.7
"2016-05-11 01:00:30",1622932,4.281,83.2,5.366,1.254,12.91,103.5554,8.38,9.51,73.82,0,110.3,13.11,9.16,45.2
"2016-05-11 01:01:00",1622933,3.898,73.46,3.563,0.357,11.28,103.5548,8.38,9.42,73.78,0,110.3,13.15,9.16,35.5
"2016-05-11 01:01:30",1622934,6.194,81,8.2,1.495,14.2,103.5551,8.38,9.57,74.16,0,110.3,13.11,9.16,43.0
"2016-05-11 01:02:00",1622935,6.91,95.6,9.97,1.437,14.53,103.5545,8.37,9.64,73.72,0,110.3,13.11,9.16,57.6
"2016-05-11 01:02:30",1622936,5.513,95.8,7.275,1.354,13.05,103.5565,8.38,9.6,73.18,0,110.3,13.11,9.16,57.8
"2016-05-11 01:03:00",1622937,5.107,101.2,5.687,1.351,12.7,103.5551,8.38,9.48,72.7,0,110.3,13.1,9.16,63.2
"2016-05-11 01:03:30",1622938,5.313,108.4,7.22,1.417,13.88,103.5551,8.38,9.57,72.58,0,110.3,13.11,9.16,70.4
"2016-05-11 01:04:00",1622939,4.454,107.7,6.518,1.258,12.61,103.5557,8.38,9.53,72.21,0,110.3,13.11,9.16,69.7
"2016-05-11 01:04:30",1622940,3.566,94.9,3.889,0.289,11.53,103.5565,8.38,9.4,71.59,0,110.3,13.15,9.16,56.9
"2016-05-11 01:05:00",1622941,3.85,95.7,7.076,1.042,12.41,103.5557,8.38,9.5,71.24,0,110.3,13.11,9.16,57.7
"2016-05-11 01:05:30",1622942,4.48,99.1,9.36,1.467,13.9,103.5562,8.38,9.5,71.02,0,110.3,13.11,9.16,61.1
"2016-05-11 01:06:00",1622943,4.152,104.6,6.517,1.325,12.91,103.5647,8.4,9.58,71.14,0,110.3,13.1,9.18,66.6
"2016-05-11 01:06:30",1622944,5.075,105.6,8.31,1.595,14.15,103.5686,8.41,9.6,71.85,0,110.3,13.1,9.19,67.6
"2016-05-11 01:07:00",1622945,5.192,99.6,7.83,1.294,12.71,103.5765,8.43,9.52,72.74,0,110.3,13.1,9.21,61.6
"2016-05-11 01:07:30",1622946,5.025,101.6,6.479,1.362,12.72,103.5788,8.44,9.6,73.52,0,110.3,13.1,9.22,63.6
"2016-05-11 01:08:00",1622947,4.409,105,4.124,0.519,11.47,103.5808,8.44,9.5,73.83,0,110.3,13.1,9.22,67.0
"2016-05-11 01:08:30",1622948,5.156,102.6,5.028,1.273,12.54,103.5799,8.44,9.56,74.1,0,110.3,13.1,9.22,64.6
"2016-05-11 01:09:00",1622949,5.372,101.1,7.341,1.316,12.69,103.5785,8.44,9.59,74.35,0,110.3,13.1,9.22,63.1
"2016-05-11 01:09:30",1622950,5.84,104.5,9.72,1.132,12.89,103.5721,8.42,9.64,74.61,0,110.3,13.1,9.20,66.5
"2016-05-11 01:10:00",1622951,6.79,109.7,8.63,1.394,13.44,103.5698,8.41,9.67,74.92,0,110.3,13.1,9.20,71.7
"2016-05-11 01:10:30",1622952,7.838,104.2,7.822,1.435,13.8,103.5589,8.39,9.65,74.74,0,110.3,13.1,9.17,66.2
"2016-05-11 01:11:00",1622953,7.352,105.3,8.16,1.534,12.77,103.5552,8.38,9.56,74.54,0,110.3,13.1,9.16,67.3
"2016-05-11 01:11:30",1622954,7.48,101.8,7.778,1.376,13.65,103.5366,8.33,9.58,74.53,0,110.3,13.1,9.11,63.8
"2016-05-11 01:12:00",1622955,7.531,104.9,8.81,1.489,13.04,103.5253,8.3,9.49,74.41,0,110.3,13.1,9.08,66.9
"2016-05-11 01:12:30",1622956,7.252,103.9,7.679,1.47,12.5,103.5197,8.29,9.51,74.38,0,110.3,13.1,9.07,65.9
"2016-05-11 01:13:00",1622957,8.05,104.7,8.39,1.346,13.85,103.4963,8.23,9.54,74.19,0,110.3,13.11,9.01,66.7
"2016-05-11 01:13:30",1622958,8.27,104.6,7.92,1.539,14.49,103.4871,8.2,9.48,74.16,0,110.3,13.11,8.98,66.6
"2016-05-11 01:14:00",1622959,8.22,103.1,6.816,1.401,13.03,103.4626,8.14,9.41,73.79,0,110.3,13.11,8.92,65.1
"2016-05-11 01:14:30",1622960,7.747,101.6,6.377,1.369,12.77,103.4558,8.12,9.4,73.34,0,110.3,13.11,8.90,63.6
"2016-05-11 01:15:00",1622961,6.625,101.5,7.308,1.513,12.56,103.4322,8.06,9.38,73.14,0,110.3,13.11,8.84,63.5
"2016-05-11 01:15:30",1622962,6.818,107.3,8.39,1.413,14.12,103.4331,8.06,9.37,73.45,0,110.3,13.11,8.84,69.3
"2016-05-11 01:16:00",1622963,5.775,107.9,7.136,1.38,13.8,103.4163,8.02,9.34,73.78,0,110.3,13.11,8.80,69.9
"2016-05-11 01:16:30",1622964,6.178,112.2,7.909,1.491,13.59,103.4057,7.994,9.26,73.9,0,110.3,13.11,8.77,74.2
"2016-05-11 01:17:00",1622965,5.575,109,7.107,1.26,12.36,103.4083,8,9.23,73.71,0,110.3,13.11,8.78,71.0
"2016-05-11 01:17:30",1622966,5.447,110.7,6.845,1.329,12.54,103.4021,7.985,9.2,73.5,0,110.3,13.11,8.77,72.7
"2016-05-11 01:18:00",1622967,5.975,112.2,7.903,1.353,13,103.3914,7.958,9.25,73.36,0,110.3,13.12,8.74,74.2
"2016-05-11 01:18:30",1622968,6.218,115.2,7.444,1.37,12.57,103.3782,7.924,9.13,72.95,0,110.3,13.12,8.70,77.2
"2016-05-11 01:19:00",1622969,6.731,117.8,7.565,1.495,13.47,103.3785,7.925,9.22,72.71,0,110.2,13.12,8.70,79.8
"2016-05-11 01:19:30",1622970,6.903,119.3,8.03,1.42,14.36,103.3782,7.924,9.2,72.45,0,110.2,13.12,8.70,81.3
"2016-05-11 01:20:00",1622971,7.195,115.1,7.23,1.45,13.41,103.376,7.918,9.18,72.12,0,110.2,13.12,8.70,77.1
"2016-05-11 01:20:30",1622972,6.809,110.3,6.596,1.304,11.91,103.3725,7.91,8.99,71.34,0,110.2,13.12,8.69,72.3
"2016-05-11 01:21:00",1622973,7.521,112.4,7.656,1.455,14.02,103.3598,7.877,9.14,71.23,0,110.2,13.12,8.66,74.4
"2016-05-11 01:21:30",1622974,6.944,106.3,6.551,1.282,12.63,103.3522,7.858,9.02,70.85,0,110.2,13.12,8.64,68.3
"2016-05-11 01:22:00",1622975,6.828,106.2,6.651,1.365,13.31,103.3511,7.855,9.13,69.88,0,110.2,13.12,8.63,68.2
"2016-05-11 01:22:30",1622976,7.456,111.3,6.379,1.639,14.11,103.3513,7.856,9.07,69.05,0,110.2,13.12,8.63,73.3
"2016-05-11 01:23:00",1622977,7.319,112.6,10.26,1.554,14,103.3525,7.859,9.03,68.66,0,110.2,13.11,8.64,74.6
"2016-05-11 01:23:30",1622978,7.413,109.3,6.288,1.145,12.4,103.3525,7.859,8.89,68.27,0,110.2,13.11,8.64,71.3
"2016-05-11 01:24:00",1622979,8.41,118.4,6.706,1.484,13.45,103.3525,7.859,9.07,67.37,0,110.2,13.11,8.64,80.4
"2016-05-11 01:24:30",1622980,9.08,113.4,8.09,1.394,12.99,103.3525,7.859,8.98,67.54,0,110.2,13.11,8.64,75.4
"2016-05-11 01:25:00",1622981,9.5,111,7.596,1.472,13.32,103.3525,7.859,9.05,68.03,0,110.2,13.11,8.64,73.0
"2016-05-11 01:25:30",1622982,9.28,112,7.591,1.452,13.79,103.3505,7.853,9.12,68.86,0,110.2,13.11,8.63,74.0
"2016-05-11 01:26:00",1622983,9.41,113.7,7.693,1.475,13.27,103.3443,7.838,8.99,69.6,0,110.2,13.11,8.62,75.7
"2016-05-11 01:26:30",1622984,9.23,108.7,7.36,1.414,12.88,103.3367,7.818,9.01,70.89,0,110.2,13.11,8.60,70.7
"2016-05-11 01:27:00",1622985,8.84,110.3,7.497,1.286,12.29,103.3237,7.785,8.98,72.18,0,110.2,13.11,8.56,72.3
"2016-05-11 01:27:30",1622986,9.04,110.2,7.913,1.438,12.8,103.3186,7.772,9.04,72.63,0,110.2,13.11,8.55,72.2
"2016-05-11 01:28:00",1622987,9.1,111.6,7.505,1.475,13.09,103.3068,7.742,8.96,72.67,0,110.2,13.11,8.52,73.6
"2016-05-11 01:28:30",1622988,8.82,112.5,7.446,1.443,13.31,103.2854,7.687,8.98,72.83,0,110.2,13.12,8.47,74.5
"2016-05-11 01:29:00",1622989,8.79,112.9,7.475,1.442,13.26,103.2848,7.685,8.95,72.68,0,110.2,13.12,8.46,74.9
"2016-05-11 01:29:30",1622990,7.885,111,5.798,1.206,12.27,103.2645,7.633,8.88,71.73,0,110.2,13.12,8.41,73.0
"2016-05-11 01:30:00",1622991,7.829,114,5.994,1.29,12.15,103.2512,7.6,8.76,71,0,110.2,13.12,8.38,76.0
"2016-05-11 01:30:30",1622992,8.56,123.9,7.387,1.527,13.89,103.2506,7.598,8.82,69.71,0,110.2,13.12,8.38,85.9
"2016-05-11 01:31:00",1622993,8.53,122.8,7.522,1.468,13.29,103.2419,7.576,8.85,68.72,0,110.2,13.12,8.35,84.8
"2016-05-11 01:31:30",1622994,8.03,120.6,7.034,1.352,12.7,103.2351,7.558,8.78,68.41,0,110.2,13.12,8.34,82.6
"2016-05-11 01:32:00",1622995,8.79,123.2,7.345,1.393,13.62,103.2221,7.525,8.82,69.25,0,110.2,13.12,8.30,85.2
"2016-05-11 01:32:30",1622996,8.5,120.1,7.781,1.431,13.03,103.2182,7.515,8.73,70.45,0,110.2,13.12,8.29,82.1
"2016-05-11 01:33:00",1622997,8.28,118.7,7.565,1.436,12.68,103.2171,7.512,8.82,71.28,0,110.2,13.12,8.29,80.7
"2016-05-11 01:33:30",1622998,8.03,116,7.05,1.253,12.45,103.2174,7.513,8.78,72.04,0,110.2,13.12,8.29,78.0
"2016-05-11 01:34:00",1622999,8.42,120.9,7.728,1.407,13,103.2174,7.513,8.8,72.85,0,110.2,13.12,8.29,82.9
"2016-05-11 01:34:30",1623000,8.76,120.1,7.907,1.438,12.79,103.2106,7.496,8.71,73.33,0,110.2,13.12,8.27,82.1
"2016-05-11 01:35:00",1623001,8.73,119.2,7.481,1.348,12.84,103.1903,7.444,8.76,73.77,0,110.2,13.12,8.22,81.2
"2016-05-11 01:35:30",1623002,9.18,119.5,7.455,1.472,13.12,103.187,7.435,8.71,73.87,0,110.2,13.13,8.21,81.5
"2016-05-11 01:36:00",1623003,9.03,117.2,7.345,1.353,12.35,103.1896,7.442,8.71,74.23,0,110.2,13.13,8.22,79.2
"2016-05-11 01:36:30",1623004,9.57,119.4,8.02,1.418,12.98,103.1815,7.422,8.68,74.79,0,110.2,13.12,8.20,81.4
"2016-05-11 01:37:00",1623005,10.12,121.3,7.815,1.338,12.85,103.167,7.384,8.69,75.29,0,110.1,13.12,8.16,83.3
"2016-05-11 01:37:30",1623006,10.17,124,7.13,1.456,12.87,103.1651,7.379,8.62,75.55,0,110.2,13.13,8.16,86.0
"2016-05-11 01:38:00",1623007,10.13,122.6,6.651,1.405,12.71,103.1538,7.351,8.62,76.02,0,110.2,13.13,8.13,84.6
"2016-05-11 01:38:30",1623008,9.88,125.1,7.603,1.49,12.78,103.135,7.303,8.61,76.59,0,110.2,13.12,8.08,87.1
"2016-05-11 01:39:00",1623009,9.68,127.4,7.683,1.406,13.22,103.1359,7.305,8.58,76.99,0,110.2,13.13,8.08,89.4
"2016-05-11 01:39:30",1623010,9.48,129.1,7.352,1.457,12.68,103.1074,7.232,8.55,76.96,0,110.2,13.13,8.01,91.1
"2016-05-11 01:40:00",1623011,9.55,132.5,7.455,1.425,13.33,103.1072,7.232,8.54,77.2,0,110.2,13.12,8.01,94.5
"2016-05-11 01:40:30",1623012,9.04,131.7,7.804,1.474,13.82,103.0909,7.19,8.52,77.5,0,110.2,13.12,7.97,93.7
"2016-05-11 01:41:00",1623013,9.4,127.1,7.153,1.33,13.12,103.078,7.157,8.46,76.97,0,110.2,13.12,7.93,89.1
"2016-05-11 01:41:30",1623014,9.2,132.4,6.832,1.51,12.67,103.0732,7.145,8.37,75.98,0,110.2,13.12,7.92,94.4
"2016-05-11 01:42:00",1623015,9.14,135.2,7.313,1.391,13.7,103.0597,7.11,8.39,75.68,0,110.2,13.12,7.89,97.2
"2016-05-11 01:42:30",1623016,8.49,132.4,6.572,1.36,12.04,103.0499,7.085,8.32,75.43,0,110.2,13.12,7.86,94.4
"2016-05-11 01:43:00",1623017,9.31,138,6.862,1.349,14.14,103.0473,7.079,8.39,75.55,0,110.2,13.12,7.86,100.0
"2016-05-11 01:43:30",1623018,8.98,134.8,6.997,1.418,14.14,103.0488,7.082,8.39,75.63,0,110.2,13.12,7.86,96.8
"2016-05-11 01:44:00",1623019,8.65,128.7,6.327,1.289,12.36,103.0485,7.082,8.25,75.9,0,110.2,13.12,7.86,90.7
"2016-05-11 01:44:30",1623020,9.24,133.1,7.394,1.432,13.31,103.0485,7.082,8.32,76.21,0,110.2,13.12,7.86,95.1
"2016-05-11 01:45:00",1623021,8.81,132.1,7.609,1.218,12.13,103.0485,7.082,8.22,75.98,0,110.2,13.12,7.86,94.1
"2016-05-11 01:45:30",1623022,9.09,133.8,7.894,1.34,13.14,103.0454,7.074,8.3,75.76,0,110.2,13.13,7.85,95.8
"2016-05-11 01:46:00",1623023,9.58,132.2,7.539,1.424,13.32,103.0409,7.062,8.31,76.16,0,110.2,13.13,7.84,94.2
"2016-05-11 01:46:30",1623024,9.46,132.4,7.411,1.427,13.59,103.0358,7.049,8.32,77.01,0,110.2,13.13,7.83,94.4
"2016-05-11 01:47:00",1623025,9.67,134.6,6.712,1.327,14.03,103.0262,7.025,8.3,77.42,0,110.2,13.13,7.80,96.6
"2016-05-11 01:47:30",1623026,9.05,128.8,6.963,1.421,12.46,103.0155,6.997,8.27,77.38,0,110.2,13.13,7.77,90.8
"2016-05-11 01:48:00",1623027,8.81,129.4,7.059,1.363,12.79,103.0149,6.996,8.17,77.39,0,110.2,13.13,7.77,91.4
"2016-05-11 01:48:30",1623028,8.86,132.1,7.555,1.419,12.43,103.0135,6.992,8.16,77.63,0,110.1,13.13,7.77,94.1
"2016-05-11 01:49:00",1623029,9.3,139.2,7.227,1.381,13.52,103.0028,6.965,8.24,77.95,0,110.1,13.13,7.74,101.2
"2016-05-11 01:49:30",1623030,9.46,140.6,7.458,1.465,13.62,102.9822,6.912,8.22,77.75,0,110.2,13.13,7.69,102.6
"2016-05-11 01:50:00",1623031,9.89,143.1,7.046,1.402,14,102.981,6.909,8.26,77.38,0,110.2,13.13,7.69,105.1